| time (UTC) | temp C | wind direction | speed KPH | gust KPH | rain 1hr cm | rain 24hr cm | rain mn cm | humidity % | barometer mb |
| 20260510045307 | 7 | 46 | 0.0 | 0.0 | 0.00 | 0.00 | 0.00 | 96 | 1011.5 |
| 20260510044805 | 7 | 47 | 0.0 | 0.0 | 0.00 | 0.00 | 0.00 | 96 | 1011.5 |
| 20260510044301 | 7 | 45 | 0.0 | 0.0 | 0.00 | 0.00 | 0.00 | 95 | 1011.6 |
| 20260510043757 | 7 | 45 | 0.0 | 0.0 | 0.00 | 0.00 | 0.00 | 95 | 1011.7 |
| 20260510043248 | 7 | 48 | 0.0 | 0.0 | 0.00 | 0.00 | 0.00 | 95 | 1011.8 |
| 20260510042746 | 7 | 49 | 0.0 | 0.0 | 0.00 | 0.00 | 0.00 | 95 | 1011.8 |
| 20260510042241 | 7 | 50 | 0.0 | 0.0 | 0.00 | 0.00 | 0.00 | 94 | 1011.5 |
| 20260510041738 | 7 | 39 | 0.0 | 0.0 | 0.00 | 0.00 | 0.00 | 94 | 1011.8 |
| 20260510041235 | 8 | 46 | 0.0 | 1.6 | 0.00 | 0.00 | 0.00 | 94 | 1011.6 |
| 20260510040733 | 8 | 43 | 0.0 | 0.0 | 0.00 | 0.00 | 0.00 | 93 | 1011.7 |
| 20260510040229 | 8 | 48 | 0.0 | 0.0 | 0.00 | 0.00 | 0.00 | 93 | 1011.6 |
| 20260510035724 | 8 | 44 | 0.0 | 1.6 | 0.00 | 0.00 | 0.00 | 93 | 1011.6 |
| 20260510035221 | 8 | 45 | 0.0 | 1.6 | 0.00 | 0.00 | 0.00 | 92 | 1011.9 |
| 20260510034716 | 8 | 45 | 0.0 | 1.6 | 0.00 | 0.00 | 0.00 | 92 | 1011.7 |
| 20260510034215 | 8 | 45 | 0.0 | 1.6 | 0.00 | 0.00 | 0.00 | 92 | 1011.7 |
| 20260510033710 | 8 | 48 | 0.0 | 0.0 | 0.00 | 0.00 | 0.00 | 91 | 1011.6 |
| 20260510033209 | 8 | 39 | 1.6 | 1.6 | 0.00 | 0.00 | 0.00 | 91 | 1011.6 |
| 20260510032705 | 8 | 47 | 0.0 | 0.0 | 0.00 | 0.00 | 0.00 | 91 | 1011.4 |
| 20260510032200 | 9 | 52 | 0.0 | 0.0 | 0.00 | 0.00 | 0.00 | 90 | 1011.4 |
| 20260510031655 | 9 | 48 | 0.0 | 0.0 | 0.00 | 0.00 | 0.00 | 89 | 1011.5 |
| 20260510031152 | 9 | 48 | 0.0 | 0.0 | 0.00 | 0.00 | 0.00 | 89 | 1011.5 |
| 20260510030652 | 10 | 41 | 1.6 | 1.6 | 0.00 | 0.00 | 0.00 | 89 | 1011.5 |
| 20260510030150 | 10 | 50 | 0.0 | 0.0 | 0.00 | 0.00 | 0.00 | 87 | 1011.6 |
| 20260510025647 | 10 | 44 | 0.0 | 0.0 | 0.00 | 0.00 | 0.00 | 86 | 1011.8 |
| 20260510025144 | 10 | 46 | 0.0 | 1.6 | 0.00 | 0.00 | 0.00 | 86 | 1011.3 |
| 20260510024641 | 10 | 44 | 0.0 | 1.6 | 0.00 | 0.00 | 0.00 | 85 | 1011.3 |
| 20260510024137 | 10 | 25 | 0.0 | 0.0 | 0.00 | 0.00 | 0.00 | 86 | 1011.2 |
| 20260510023633 | 10 | 46 | 0.0 | 0.0 | 0.00 | 0.00 | 0.00 | 86 | 1011.4 |
| 20260510023131 | 10 | 51 | 0.0 | 0.0 | 0.00 | 0.00 | 0.00 | 86 | 1011.3 |
| 20260510022631 | 10 | 47 | 0.0 | 0.0 | 0.00 | 0.00 | 0.00 | 86 | 1011.1 |
| 20260510022126 | 11 | 39 | 0.0 | 0.0 | 0.00 | 0.00 | 0.00 | 86 | 1011.1 |
| 20260510021616 | 11 | 51 | 0.0 | 0.0 | 0.00 | 0.00 | 0.00 | 85 | 1011.0 |
| 20260510021114 | 11 | 46 | 0.0 | 0.0 | 0.00 | 0.00 | 0.00 | 84 | 1010.8 |
| 20260510020608 | 11 | 50 | 0.0 | 1.6 | 0.00 | 0.00 | 0.00 | 84 | 1010.7 |
| 20260510020104 | 11 | 47 | 0.0 | 1.6 | 0.00 | 0.00 | 0.00 | 84 | 1010.6 |
| 20260510015600 | 11 | 47 | 0.0 | 0.0 | 0.00 | 0.00 | 0.00 | 82 | 1010.5 |
| 20260510015056 | 11 | 47 | 0.0 | 1.6 | 0.00 | 0.00 | 0.00 | 82 | 1010.5 |
| 20260510014552 | 11 | 48 | 0.0 | 0.0 | 0.00 | 0.00 | 0.00 | 83 | 1010.2 |
| 20260510014050 | 11 | 39 | 1.6 | 3.2 | 0.00 | 0.00 | 0.00 | 82 | 1010.2 |
| 20260510013544 | 12 | 46 | 0.0 | 0.0 | 0.00 | 0.00 | 0.00 | 81 | 1010.4 |
| 20260510013040 | 12 | 34 | 1.6 | 1.6 | 0.00 | 0.00 | 0.00 | 82 | 1010.3 |
| 20260510012534 | 12 | 36 | 1.6 | 1.6 | 0.00 | 0.00 | 0.00 | 82 | 1010.3 |
| 20260510012031 | 12 | 42 | 0.0 | 0.0 | 0.00 | 0.00 | 0.00 | 81 | 1010.1 |
| 20260510011530 | 13 | 42 | 0.0 | 0.0 | 0.00 | 0.00 | 0.00 | 79 | 1010.2 |
| 20260510011026 | 13 | 42 | 0.0 | 0.0 | 0.00 | 0.00 | 0.00 | 77 | 1009.9 |
| 20260510010523 | 13 | 36 | 0.0 | 0.0 | 0.00 | 0.00 | 0.00 | 74 | 1009.9 |
| 20260510010020 | 13 | 35 | 0.0 | 0.0 | 0.00 | 0.00 | 0.00 | 74 | 1009.6 |
| 20260510005516 | 14 | 46 | 0.0 | 0.0 | 0.00 | 0.00 | 0.00 | 73 | 1009.7 |
| 20260510005014 | 14 | 50 | 0.0 | 0.0 | 0.00 | 0.00 | 0.00 | 73 | 1009.5 |
| 20260510004511 | 14 | 43 | 0.0 | 0.0 | 0.00 | 0.00 | 0.00 | 73 | 1009.3 |
| 20260510004009 | 15 | 35 | 0.0 | 1.6 | 0.00 | 0.00 | 0.00 | 71 | 1009.4 |
| 20260510003505 | 15 | 47 | 0.0 | 0.0 | 0.00 | 0.00 | 0.00 | 71 | 1008.9 |
| 20260510003000 | 15 | 49 | 0.0 | 1.6 | 0.00 | 0.00 | 0.00 | 71 | 1008.7 |
| 20260510002457 | 16 | 46 | 0.0 | 0.0 | 0.00 | 0.00 | 0.00 | 68 | 1008.8 |
| 20260510001953 | 16 | 49 | 0.0 | 0.0 | 0.00 | 0.00 | 0.00 | 62 | 1008.7 |
| 20260510001451 | 17 | 46 | 0.0 | 0.0 | 0.00 | 0.00 | 0.00 | 57 | 1008.7 |
| 20260510000948 | 17 | 48 | 0.0 | 0.0 | 0.00 | 0.00 | 0.00 | 54 | 1008.6 |
| 20260510000444 | 18 | 40 | 0.0 | 0.0 | 0.00 | 0.00 | 0.00 | 53 | 1008.8 |
| 20260509235941 | 18 | 43 | 0.0 | 0.0 | 0.00 | 0.00 | 0.00 | 54 | 1008.6 |
| 20260509235437 | 19 | 35 | 0.0 | 3.2 | 0.00 | 0.00 | 0.00 | 51 | 1008.5 |
| 20260509234934 | 19 | 37 | 0.0 | 1.6 | 0.00 | 0.00 | 0.00 | 51 | 1008.5 |
| 20260509234431 | 20 | 43 | 0.0 | 1.6 | 0.00 | 0.00 | 0.00 | 49 | 1008.8 |
| 20260509233929 | 20 | 52 | 0.0 | 0.0 | 0.00 | 0.00 | 0.00 | 47 | 1008.5 |
| 20260509233426 | 20 | 48 | 0.0 | 0.0 | 0.00 | 0.00 | 0.00 | 48 | 1008.7 |
| 20260509232922 | 21 | 61 | 0.0 | 0.0 | 0.00 | 0.00 | 0.00 | 48 | 1008.6 |
| 20260509232420 | 21 | 55 | 0.0 | 0.0 | 0.00 | 0.00 | 0.00 | 46 | 1008.6 |
| 20260509231915 | 21 | 54 | 1.6 | 1.6 | 0.00 | 0.00 | 0.00 | 46 | 1008.5 |
| 20260509231413 | 22 | 85 | 0.0 | 1.6 | 0.00 | 0.00 | 0.00 | 43 | 1008.6 |
| 20260509230911 | 22 | 49 | 0.0 | 1.6 | 0.00 | 0.00 | 0.00 | 45 | 1008.7 |
| 20260509230407 | 22 | 59 | 0.0 | 1.6 | 0.00 | 0.00 | 0.00 | 47 | 1008.4 |
| 20260509225902 | 21 | 60 | 0.0 | 0.0 | 0.00 | 0.00 | 0.00 | 48 | 1008.2 |
| 20260509225359 | 21 | 50 | 0.0 | 0.0 | 0.00 | 0.00 | 0.00 | 50 | 1008.3 |
| 20260509224855 | 21 | 70 | 0.0 | 0.0 | 0.00 | 0.00 | 0.00 | 49 | 1008.3 |
| 20260509224351 | 21 | 55 | 0.0 | 0.0 | 0.00 | 0.00 | 0.00 | 53 | 1008.4 |
| 20260509223849 | 21 | 54 | 0.0 | 0.0 | 0.00 | 0.00 | 0.00 | 51 | 1008.5 |
| 20260509223345 | 21 | 48 | 0.0 | 1.6 | 0.00 | 0.00 | 0.00 | 44 | 1008.4 |
| 20260509222843 | 21 | 33 | 0.0 | 1.6 | 0.00 | 0.00 | 0.00 | 41 | 1008.5 |
| 20260509222337 | 22 | 83 | 0.0 | 1.6 | 0.00 | 0.00 | 0.00 | 42 | 1008.4 |
| 20260509221833 | 22 | 47 | 1.6 | 1.6 | 0.00 | 0.00 | 0.00 | 41 | 1008.3 |
| 20260509221331 | 22 | 64 | 1.6 | 1.6 | 0.00 | 0.00 | 0.00 | 42 | 1008.3 |
| 20260509220831 | 22 | 50 | 0.0 | 0.0 | 0.00 | 0.00 | 0.00 | 40 | 1008.3 |
| 20260509220327 | 22 | 28 | 1.6 | 1.6 | 0.00 | 0.00 | 0.00 | 41 | 1008.3 |
| 20260509215822 | 22 | 232 | 4.8 | 4.8 | 0.00 | 0.00 | 0.00 | 39 | 1008.2 |
| 20260509215320 | 22 | 73 | 0.0 | 0.0 | 0.00 | 0.00 | 0.00 | 41 | 1008.2 |
| 20260509214816 | 22 | 55 | 0.0 | 1.6 | 0.00 | 0.00 | 0.00 | 39 | 1008.3 |
| 20260509214313 | 22 | 33 | 4.8 | 4.8 | 0.00 | 0.00 | 0.00 | 37 | 1008.3 |
| 20260509213810 | 22 | 49 | 0.0 | 1.6 | 0.00 | 0.00 | 0.00 | 39 | 1008.2 |
| 20260509213306 | 22 | 57 | 0.0 | 11.3 | 0.00 | 0.00 | 0.00 | 38 | 1008.1 |
| 20260509212804 | 22 | 22 | 6.4 | 9.7 | 0.00 | 0.00 | 0.00 | 37 | 1008.1 |
| 20260509212301 | 22 | 45 | 0.0 | 3.2 | 0.00 | 0.00 | 0.00 | 38 | 1008.0 |
| 20260509211756 | 22 | 352 | 0.0 | 6.4 | 0.00 | 0.00 | 0.00 | 39 | 1008.0 |
| 20260509211253 | 22 | 50 | 1.6 | 6.4 | 0.00 | 0.00 | 0.00 | 37 | 1007.7 |
| 20260509210749 | 22 | 41 | 0.0 | 1.6 | 0.00 | 0.00 | 0.00 | 39 | 1007.9 |
| 20260509210248 | 22 | 164 | 1.6 | 3.2 | 0.00 | 0.00 | 0.00 | 38 | 1007.7 |
| 20260509205746 | 22 | 47 | 1.6 | 6.4 | 0.00 | 0.00 | 0.00 | 37 | 1007.8 |
| 20260509205242 | 22 | 23 | 1.6 | 4.8 | 0.00 | 0.00 | 0.00 | 38 | 1007.7 |
| 20260509204738 | 22 | 49 | 0.0 | 1.6 | 0.00 | 0.00 | 0.00 | 38 | 1007.6 |
| 20260509204234 | 22 | 330 | 1.6 | 3.2 | 0.00 | 0.00 | 0.00 | 41 | 1007.7 |
| 20260509203730 | 21 | 17 | 1.6 | 3.2 | 0.00 | 0.00 | 0.00 | 42 | 1007.7 |
| 20260509203229 | 22 | 30 | 1.6 | 3.2 | 0.00 | 0.00 | 0.00 | 44 | 1007.9 |
| 20260509202724 | 22 | 45 | 6.4 | 11.3 | 0.00 | 0.00 | 0.00 | 40 | 1007.8 |
| 20260509202220 | 22 | 50 | 0.0 | 1.6 | 0.00 | 0.00 | 0.00 | 51 | 1007.6 |
| 20260509201714 | 22 | 27 | 1.6 | 1.6 | 0.00 | 0.00 | 0.00 | 39 | 1007.6 |
| 20260509201212 | 22 | 55 | 0.0 | 0.0 | 0.00 | 0.00 | 0.00 | 39 | 1007.7 |
| 20260509200709 | 22 | 53 | 0.0 | 0.0 | 0.00 | 0.00 | 0.00 | 38 | 1007.6 |
| 20260509200209 | 22 | 53 | 0.0 | 0.0 | 0.00 | 0.00 | 0.00 | 38 | 1007.6 |
| 20260509195705 | 22 | 55 | 0.0 | 1.6 | 0.00 | 0.00 | 0.00 | 39 | 1008.0 |
| 20260509195201 | 22 | 43 | 4.8 | 4.8 | 0.00 | 0.00 | 0.00 | 40 | 1007.8 |
| 20260509194700 | 23 | 45 | 0.0 | 1.6 | 0.00 | 0.00 | 0.00 | 39 | 1007.9 |
| 20260509194157 | 23 | 38 | 1.6 | 1.6 | 0.00 | 0.00 | 0.00 | 38 | 1007.7 |
| 20260509193654 | 23 | 49 | 0.0 | 1.6 | 0.00 | 0.00 | 0.00 | 37 | 1007.8 |
| 20260509193149 | 22 | 58 | 0.0 | 0.0 | 0.00 | 0.00 | 0.00 | 41 | 1008.0 |
| 20260509192646 | 23 | 102 | 3.2 | 3.2 | 0.00 | 0.00 | 0.00 | 40 | 1007.8 |
| 20260509192141 | 23 | 72 | 0.0 | 6.4 | 0.00 | 0.00 | 0.00 | 40 | 1008.0 |
| 20260509191635 | 23 | 73 | 1.6 | 3.2 | 0.00 | 0.00 | 0.00 | 40 | 1008.0 |
| 20260509191132 | 24 | 174 | 6.4 | 6.4 | 0.00 | 0.00 | 0.00 | 40 | 1008.0 |
| 20260509190628 | 23 | 92 | 1.6 | 4.8 | 0.00 | 0.00 | 0.00 | 42 | 1008.3 |
| 20260509190127 | 23 | 68 | 1.6 | 3.2 | 0.00 | 0.00 | 0.00 | 44 | 1008.3 |
| 20260509185624 | 23 | 171 | 3.2 | 9.7 | 0.00 | 0.00 | 0.00 | 45 | 1008.4 |
| 20260509185120 | 23 | 84 | 1.6 | 4.8 | 0.00 | 0.00 | 0.00 | 46 | 1008.3 |
| 20260509184618 | 22 | 54 | 0.0 | 4.8 | 0.00 | 0.00 | 0.00 | 46 | 1008.1 |
| 20260509184115 | 22 | 44 | 1.6 | 3.2 | 0.00 | 0.00 | 0.00 | 47 | 1008.3 |
| 20260509183610 | 22 | 335 | 0.0 | 1.6 | 0.00 | 0.00 | 0.00 | 48 | 1008.5 |
| 20260509183105 | 23 | 190 | 3.2 | 3.2 | 0.00 | 0.00 | 0.00 | 48 | 1008.6 |
| 20260509182602 | 23 | 63 | 0.0 | 3.2 | 0.00 | 0.00 | 0.00 | 47 | 1008.4 |
| 20260509182059 | 23 | 182 | 3.2 | 4.8 | 0.00 | 0.00 | 0.00 | 49 | 1008.4 |
| 20260509181557 | 22 | 57 | 1.6 | 3.2 | 0.00 | 0.00 | 0.00 | 49 | 1008.7 |
| 20260509181054 | 21 | 68 | 0.0 | 3.2 | 0.00 | 0.00 | 0.00 | 49 | 1008.6 |
| 20260509180549 | 21 | 55 | 1.6 | 3.2 | 0.00 | 0.00 | 0.00 | 53 | 1008.9 |
| 20260509180047 | 20 | 84 | 1.6 | 3.2 | 0.00 | 0.00 | 0.00 | 52 | 1009.0 |
| 20260509175542 | 20 | 67 | 0.0 | 3.2 | 0.00 | 0.00 | 0.00 | 58 | 1009.1 |
| 20260509175040 | 20 | 53 | 1.6 | 1.6 | 0.00 | 0.00 | 0.00 | 54 | 1009.1 |
| 20260509174537 | 20 | 56 | 0.0 | 3.2 | 0.00 | 0.00 | 0.00 | 54 | 1009.4 |
| 20260509174032 | 20 | 59 | 0.0 | 1.6 | 0.00 | 0.00 | 0.00 | 52 | 1009.4 |
| 20260509173527 | 20 | 66 | 0.0 | 1.6 | 0.00 | 0.00 | 0.00 | 51 | 1009.5 |
| 20260509173023 | 20 | 92 | 0.0 | 3.2 | 0.00 | 0.00 | 0.00 | 51 | 1009.5 |
| 20260509172520 | 20 | 42 | 0.0 | 1.6 | 0.00 | 0.00 | 0.00 | 54 | 1009.5 |
| 20260509172015 | 20 | 57 | 1.6 | 1.6 | 0.00 | 0.00 | 0.00 | 53 | 1009.5 |
| 20260509171512 | 20 | 40 | 4.8 | 4.8 | 0.00 | 0.00 | 0.00 | 51 | 1009.2 |
| 20260509171008 | 20 | 71 | 1.6 | 3.2 | 0.00 | 0.00 | 0.00 | 52 | 1009.1 |
| 20260509170504 | 20 | 57 | 0.0 | 1.6 | 0.00 | 0.00 | 0.00 | 53 | 1009.6 |
| 20260509165959 | 20 | 78 | 1.6 | 1.6 | 0.00 | 0.00 | 0.00 | 53 | 1009.5 |
| 20260509165458 | 20 | 70 | 0.0 | 3.2 | 0.00 | 0.00 | 0.00 | 52 | 1009.5 |
| 20260509164955 | 20 | 53 | 0.0 | 6.4 | 0.00 | 0.00 | 0.00 | 53 | 1009.5 |
| 20260509164450 | 20 | 51 | 0.0 | 1.6 | 0.00 | 0.00 | 0.00 | 52 | 1009.5 |
| 20260509163946 | 20 | 80 | 3.2 | 3.2 | 0.00 | 0.00 | 0.00 | 52 | 1009.6 |
| 20260509163444 | 20 | 51 | 0.0 | 4.8 | 0.00 | 0.00 | 0.00 | 51 | 1009.4 |
| 20260509162943 | 21 | 43 | 1.6 | 1.6 | 0.00 | 0.00 | 0.00 | 50 | 1009.5 |
| 20260509162442 | 20 | 346 | 1.6 | 1.6 | 0.00 | 0.00 | 0.00 | 50 | 1009.6 |
| 20260509161938 | 20 | 48 | 1.6 | 4.8 | 0.00 | 0.00 | 0.00 | 50 | 1009.7 |
| 20260509161434 | 21 | 58 | 0.0 | 1.6 | 0.00 | 0.00 | 0.00 | 49 | 1009.6 |
| 20260509160930 | 21 | 90 | 1.6 | 3.2 | 0.00 | 0.00 | 0.00 | 50 | 1009.5 |
| 20260509160426 | 20 | 64 | 1.6 | 1.6 | 0.00 | 0.00 | 0.00 | 49 | 1009.5 |
| 20260509155921 | 21 | 76 | 0.0 | 3.2 | 0.00 | 0.00 | 0.00 | 49 | 1009.3 |
| 20260509155418 | 20 | 39 | 0.0 | 3.2 | 0.00 | 0.00 | 0.00 | 49 | 1009.4 |
| 20260509154914 | 21 | 68 | 1.6 | 3.2 | 0.00 | 0.00 | 0.00 | 47 | 1009.5 |
| 20260509154411 | 21 | 80 | 0.0 | 1.6 | 0.00 | 0.00 | 0.00 | 45 | 1009.6 |
| 20260509153907 | 20 | 70 | 0.0 | 1.6 | 0.00 | 0.00 | 0.00 | 47 | 1009.5 |
| 20260509153405 | 20 | 353 | 1.6 | 3.2 | 0.00 | 0.00 | 0.00 | 47 | 1009.3 |
| 20260509152902 | 20 | 63 | 0.0 | 3.2 | 0.00 | 0.00 | 0.00 | 46 | 1009.3 |
| 20260509152357 | 21 | 36 | 0.0 | 1.6 | 0.00 | 0.00 | 0.00 | 44 | 1009.2 |
| 20260509151855 | 20 | 54 | 1.6 | 1.6 | 0.00 | 0.00 | 0.00 | 47 | 1009.2 |
| 20260509151350 | 20 | 78 | 1.6 | 3.2 | 0.00 | 0.00 | 0.00 | 48 | 1009.0 |
| 20260509150849 | 20 | 51 | 0.0 | 1.6 | 0.00 | 0.00 | 0.00 | 45 | 1009.5 |
| 20260509150347 | 20 | 56 | 1.6 | 1.6 | 0.00 | 0.00 | 0.00 | 46 | 1009.6 |
| 20260509145844 | 20 | 62 | 1.6 | 3.2 | 0.00 | 0.00 | 0.00 | 46 | 1009.4 |
| 20260509145338 | 20 | 153 | 3.2 | 4.8 | 0.00 | 0.00 | 0.00 | 47 | 1009.5 |
| 20260509144835 | 20 | 56 | 0.0 | 3.2 | 0.00 | 0.00 | 0.00 | 47 | 1009.4 |
| 20260509144332 | 19 | 53 | 0.0 | 3.2 | 0.00 | 0.00 | 0.00 | 46 | 1009.5 |
| 20260509143829 | 20 | 84 | 1.6 | 4.8 | 0.00 | 0.00 | 0.00 | 50 | 1009.6 |
| 20260509143327 | 20 | 65 | 0.0 | 4.8 | 0.00 | 0.00 | 0.00 | 49 | 1009.6 |
| 20260509142822 | 20 | 80 | 0.0 | 3.2 | 0.00 | 0.00 | 0.00 | 50 | 1009.4 |
| 20260509142319 | 19 | 51 | 0.0 | 1.6 | 0.00 | 0.00 | 0.00 | 52 | 1009.7 |
| 20260509141814 | 19 | 62 | 0.0 | 4.8 | 0.00 | 0.00 | 0.00 | 54 | 1009.5 |
| 20260509141312 | 19 | 61 | 0.0 | 3.2 | 0.00 | 0.00 | 0.00 | 54 | 1009.8 |
| 20260509140808 | 19 | 53 | 0.0 | 1.6 | 0.00 | 0.00 | 0.00 | 55 | 1010.1 |
| 20260509140305 | 17 | 55 | 0.0 | 1.6 | 0.00 | 0.00 | 0.00 | 58 | 1010.1 |
| 20260509135803 | 17 | 87 | 1.6 | 1.6 | 0.00 | 0.00 | 0.00 | 57 | 1010.3 |
| 20260509135300 | 16 | 54 | 0.0 | 1.6 | 0.00 | 0.00 | 0.00 | 60 | 1010.3 |
| 20260509134757 | 16 | 61 | 0.0 | 1.6 | 0.00 | 0.00 | 0.00 | 61 | 1010.3 |
| 20260509134255 | 16 | 52 | 0.0 | 0.0 | 0.00 | 0.00 | 0.00 | 62 | 1010.5 |
| 20260509133752 | 16 | 54 | 0.0 | 0.0 | 0.00 | 0.00 | 0.00 | 61 | 1010.5 |
| 20260509133248 | 16 | 57 | 0.0 | 0.0 | 0.00 | 0.00 | 0.00 | 62 | 1010.7 |
| 20260509132747 | 15 | 57 | 0.0 | 0.0 | 0.00 | 0.00 | 0.00 | 65 | 1010.5 |
| 20260509132245 | 15 | 56 | 0.0 | 0.0 | 0.00 | 0.00 | 0.00 | 69 | 1010.5 |
| 20260509131742 | 14 | 52 | 0.0 | 0.0 | 0.00 | 0.00 | 0.00 | 71 | 1010.3 |
| 20260509131238 | 13 | 59 | 0.0 | 0.0 | 0.00 | 0.00 | 0.00 | 71 | 1010.7 |
| 20260509130734 | 13 | 49 | 0.0 | 0.0 | 0.00 | 0.00 | 0.00 | 74 | 1010.5 |
| 20260509130230 | 12 | 58 | 0.0 | 0.0 | 0.00 | 0.00 | 0.00 | 76 | 1010.5 |
| 20260509125727 | 12 | 71 | 0.0 | 1.6 | 0.00 | 0.00 | 0.00 | 78 | 1010.2 |
| 20260509125224 | 12 | 61 | 1.6 | 1.6 | 0.00 | 0.00 | 0.00 | 77 | 1010.3 |
| 20260509124720 | 12 | 60 | 0.0 | 0.0 | 0.00 | 0.00 | 0.00 | 78 | 1010.2 |
| 20260509124217 | 12 | 51 | 0.0 | 0.0 | 0.00 | 0.00 | 0.00 | 79 | 1010.1 |
| 20260509123716 | 12 | 71 | 0.0 | 0.0 | 0.00 | 0.00 | 0.00 | 77 | 1009.8 |
| 20260509123213 | 12 | 48 | 0.0 | 0.0 | 0.00 | 0.00 | 0.00 | 78 | 1010.4 |
| 20260509122708 | 11 | 50 | 0.0 | 0.0 | 0.00 | 0.00 | 0.00 | 80 | 1010.3 |
| 20260509122205 | 11 | 47 | 0.0 | 0.0 | 0.00 | 0.00 | 0.00 | 81 | 1010.3 |
| 20260509121702 | 11 | 50 | 0.0 | 0.0 | 0.00 | 0.00 | 0.00 | 82 | 1010.4 |
| 20260509121200 | 11 | 50 | 0.0 | 0.0 | 0.00 | 0.00 | 0.00 | 82 | 1010.2 |
| 20260509120658 | 11 | 52 | 0.0 | 0.0 | 0.00 | 0.00 | 0.00 | 83 | 1010.6 |
| 20260509120155 | 11 | 53 | 0.0 | 0.0 | 0.00 | 0.00 | 0.00 | 83 | 1010.5 |
| 20260509115653 | 10 | 53 | 0.0 | 0.0 | 0.00 | 0.00 | 0.00 | 83 | 1010.4 |
| 20260509115150 | 10 | 61 | 0.0 | 0.0 | 0.00 | 0.00 | 0.00 | 84 | 1010.5 |
| 20260509114648 | 10 | 46 | 0.0 | 0.0 | 0.00 | 0.00 | 0.00 | 85 | 1010.4 |
| 20260509114147 | 10 | 59 | 0.0 | 0.0 | 0.00 | 0.00 | 0.00 | 86 | 1010.6 |
| 20260509113645 | 10 | 52 | 0.0 | 0.0 | 0.00 | 0.00 | 0.00 | 86 | 1010.5 |
| 20260509113142 | 10 | 47 | 0.0 | 0.0 | 0.00 | 0.00 | 0.00 | 87 | 1010.4 |
| 20260509112638 | 10 | 63 | 0.0 | 0.0 | 0.00 | 0.00 | 0.00 | 86 | 1010.3 |
| 20260509112135 | 9 | 46 | 0.0 | 0.0 | 0.00 | 0.00 | 0.00 | 86 | 1010.1 |
| 20260509111632 | 9 | 56 | 0.0 | 0.0 | 0.00 | 0.00 | 0.00 | 87 | 1010.5 |
| 20260509111129 | 9 | 50 | 0.0 | 0.0 | 0.00 | 0.00 | 0.00 | 87 | 1010.1 |
| 20260509110626 | 9 | 58 | 0.0 | 0.0 | 0.00 | 0.00 | 0.00 | 89 | 1010.1 |
| 20260509110124 | 8 | 63 | 0.0 | 0.0 | 0.00 | 0.00 | 0.00 | 89 | 1010.3 |
| 20260509105621 | 8 | 47 | 0.0 | 0.0 | 0.00 | 0.00 | 0.00 | 90 | 1010.2 |
| 20260509105119 | 8 | 49 | 0.0 | 0.0 | 0.00 | 0.00 | 0.00 | 89 | 1010.1 |
| 20260509104616 | 8 | 46 | 0.0 | 0.0 | 0.00 | 0.00 | 0.00 | 90 | 1009.9 |
| 20260509104112 | 8 | 42 | 0.0 | 0.0 | 0.00 | 0.00 | 0.00 | 90 | 1010.2 |
| 20260509103610 | 8 | 51 | 0.0 | 0.0 | 0.00 | 0.00 | 0.00 | 89 | 1010.4 |
| 20260509103108 | 8 | 46 | 0.0 | 0.0 | 0.00 | 0.00 | 0.00 | 90 | 1010.3 |
| 20260509102605 | 8 | 44 | 0.0 | 0.0 | 0.00 | 0.00 | 0.00 | 90 | 1010.3 |
| 20260509102102 | 8 | 48 | 0.0 | 0.0 | 0.00 | 0.00 | 0.00 | 90 | 1010.4 |
| 20260509101558 | 8 | 46 | 0.0 | 0.0 | 0.00 | 0.00 | 0.00 | 90 | 1010.3 |
| 20260509101055 | 8 | 45 | 0.0 | 0.0 | 0.00 | 0.00 | 0.00 | 89 | 1010.4 |
| 20260509100552 | 8 | 51 | 0.0 | 0.0 | 0.00 | 0.00 | 0.00 | 88 | 1010.3 |
| 20260509100050 | 8 | 47 | 0.0 | 0.0 | 0.00 | 0.00 | 0.00 | 89 | 1010.2 |
| 20260509095546 | 8 | 38 | 0.0 | 0.0 | 0.00 | 0.00 | 0.00 | 89 | 1010.4 |
| 20260509095044 | 8 | 49 | 0.0 | 0.0 | 0.00 | 0.00 | 0.00 | 89 | 1010.3 |
| 20260509094540 | 8 | 51 | 0.0 | 0.0 | 0.00 | 0.00 | 0.00 | 89 | 1010.4 |
| 20260509094037 | 8 | 46 | 0.0 | 0.0 | 0.00 | 0.00 | 0.00 | 88 | 1010.2 |
| 20260509093535 | 8 | 63 | 1.6 | 1.6 | 0.00 | 0.00 | 0.00 | 88 | 1010.5 |
| 20260509093033 | 8 | 46 | 0.0 | 0.0 | 0.00 | 0.00 | 0.00 | 89 | 1010.3 |
| 20260509092530 | 8 | 47 | 0.0 | 0.0 | 0.00 | 0.00 | 0.00 | 88 | 1010.5 |
| 20260509092029 | 8 | 48 | 0.0 | 0.0 | 0.00 | 0.00 | 0.00 | 88 | 1010.5 |
| 20260509091526 | 8 | 48 | 0.0 | 0.0 | 0.00 | 0.00 | 0.00 | 88 | 1010.5 |
| 20260509091022 | 8 | 40 | 0.0 | 0.0 | 0.00 | 0.00 | 0.00 | 88 | 1010.4 |
| 20260509090520 | 8 | 46 | 0.0 | 0.0 | 0.00 | 0.00 | 0.00 | 88 | 1010.4 |
| 20260509090018 | 8 | 35 | 0.0 | 1.6 | 0.00 | 0.00 | 0.00 | 88 | 1010.4 |
| 20260509085514 | 8 | 45 | 0.0 | 0.0 | 0.00 | 0.00 | 0.00 | 87 | 1010.2 |
| 20260509085010 | 8 | 50 | 0.0 | 0.0 | 0.00 | 0.00 | 0.00 | 86 | 1010.3 |
| 20260509084508 | 8 | 48 | 0.0 | 0.0 | 0.00 | 0.00 | 0.00 | 87 | 1010.4 |
| 20260509084005 | 8 | 52 | 0.0 | 1.6 | 0.00 | 0.00 | 0.00 | 86 | 1010.8 |
| 20260509083502 | 8 | 53 | 0.0 | 3.2 | 0.00 | 0.00 | 0.00 | 87 | 1010.8 |
| 20260509082958 | 8 | 39 | 0.0 | 0.0 | 0.00 | 0.00 | 0.00 | 86 | 1010.6 |
| 20260509082456 | 8 | 43 | 0.0 | 0.0 | 0.00 | 0.00 | 0.00 | 86 | 1010.8 |
| 20260509081952 | 8 | 41 | 0.0 | 0.0 | 0.00 | 0.00 | 0.00 | 86 | 1010.7 |
| 20260509081450 | 8 | 55 | 0.0 | 0.0 | 0.00 | 0.00 | 0.00 | 86 | 1010.6 |
| 20260509080947 | 8 | 49 | 0.0 | 0.0 | 0.00 | 0.00 | 0.00 | 87 | 1010.7 |
| 20260509080445 | 8 | 46 | 0.0 | 0.0 | 0.00 | 0.00 | 0.00 | 87 | 1010.8 |
| 20260509075943 | 8 | 42 | 0.0 | 0.0 | 0.00 | 0.00 | 0.00 | 87 | 1010.9 |
| 20260509075439 | 8 | 67 | 0.0 | 0.0 | 0.00 | 0.00 | 0.00 | 87 | 1010.8 |
| 20260509074938 | 8 | 46 | 0.0 | 0.0 | 0.00 | 0.00 | 0.00 | 87 | 1010.8 |
| 20260509074435 | 8 | 42 | 0.0 | 0.0 | 0.00 | 0.00 | 0.00 | 86 | 1010.8 |
| 20260509073931 | 8 | 48 | 0.0 | 0.0 | 0.00 | 0.00 | 0.00 | 86 | 1010.9 |
| 20260509073427 | 8 | 59 | 0.0 | 0.0 | 0.00 | 0.00 | 0.00 | 87 | 1010.9 |
| 20260509072924 | 8 | 49 | 0.0 | 0.0 | 0.00 | 0.00 | 0.00 | 86 | 1010.9 |
| 20260509072421 | 8 | 50 | 0.0 | 0.0 | 0.00 | 0.00 | 0.00 | 87 | 1011.0 |
| 20260509071917 | 8 | 55 | 0.0 | 0.0 | 0.00 | 0.00 | 0.00 | 87 | 1011.0 |
| 20260509071414 | 8 | 61 | 0.0 | 0.0 | 0.00 | 0.00 | 0.00 | 87 | 1011.2 |
| 20260509070912 | 8 | 51 | 0.0 | 0.0 | 0.00 | 0.00 | 0.00 | 86 | 1011.0 |
| 20260509070408 | 8 | 48 | 0.0 | 0.0 | 0.00 | 0.00 | 0.00 | 87 | 1011.3 |
| 20260509065904 | 8 | 46 | 0.0 | 0.0 | 0.00 | 0.00 | 0.00 | 87 | 1011.2 |
| 20260509065400 | 8 | 63 | 0.0 | 0.0 | 0.00 | 0.00 | 0.00 | 87 | 1011.1 |
| 20260509064856 | 8 | 47 | 0.0 | 0.0 | 0.00 | 0.00 | 0.00 | 87 | 1011.3 |
| 20260509064354 | 7 | 77 | 0.0 | 0.0 | 0.00 | 0.00 | 0.00 | 88 | 1011.2 |
| 20260509063852 | 7 | 48 | 0.0 | 0.0 | 0.00 | 0.00 | 0.00 | 88 | 1011.3 |
| 20260509063347 | 7 | 51 | 0.0 | 0.0 | 0.00 | 0.00 | 0.00 | 88 | 1011.4 |
| 20260509062845 | 7 | 39 | 0.0 | 0.0 | 0.00 | 0.00 | 0.00 | 88 | 1011.3 |
| 20260509062342 | 7 | 41 | 0.0 | 0.0 | 0.00 | 0.00 | 0.00 | 90 | 1011.3 |
| 20260509061839 | 7 | 44 | 0.0 | 0.0 | 0.00 | 0.00 | 0.00 | 90 | 1011.3 |
| 20260509061337 | 7 | 35 | 0.0 | 0.0 | 0.00 | 0.00 | 0.00 | 90 | 1011.4 |
| 20260509060834 | 7 | 46 | 0.0 | 0.0 | 0.00 | 0.00 | 0.00 | 91 | 1011.4 |
| 20260509060331 | 7 | 47 | 0.0 | 0.0 | 0.00 | 0.00 | 0.00 | 91 | 1011.5 |
| 20260509055826 | 7 | 50 | 0.0 | 0.0 | 0.00 | 0.00 | 0.00 | 91 | 1011.6 |
| 20260509055327 | 7 | 46 | 0.0 | 0.0 | 0.00 | 0.00 | 0.00 | 90 | 1011.5 |
| 20260509054824 | 7 | 47 | 0.0 | 0.0 | 0.00 | 0.00 | 0.00 | 89 | 1011.8 |
| 20260509054321 | 7 | 47 | 0.0 | 0.0 | 0.00 | 0.00 | 0.00 | 89 | 1011.7 |
| 20260509053819 | 7 | 47 | 0.0 | 0.0 | 0.00 | 0.00 | 0.00 | 88 | 1011.8 |
| 20260509053316 | 7 | 47 | 0.0 | 0.0 | 0.00 | 0.00 | 0.00 | 88 | 1011.8 |
| 20260509052814 | 8 | 45 | 0.0 | 0.0 | 0.00 | 0.00 | 0.00 | 87 | 1011.9 |
| 20260509052311 | 8 | 45 | 0.0 | 0.0 | 0.00 | 0.00 | 0.00 | 87 | 1011.5 |
| 20260509051809 | 8 | 47 | 0.0 | 0.0 | 0.00 | 0.00 | 0.00 | 86 | 1011.8 |
| 20260509051307 | 8 | 46 | 0.0 | 0.0 | 0.00 | 0.00 | 0.00 | 86 | 1011.7 |
| 20260509050803 | 8 | 48 | 0.0 | 0.0 | 0.00 | 0.00 | 0.00 | 86 | 1012.0 |
| 20260509050300 | 8 | 52 | 0.0 | 1.6 | 0.00 | 0.00 | 0.00 | 85 | 1011.8 |
| 20260509045757 | 8 | 49 | 0.0 | 0.0 | 0.00 | 0.00 | 0.00 | 85 | 1011.8 |